Location: Colonia Mina de C?rbuni
(46.1667°N, 22.7167°E)
Time: 10:09:40
(UTC+00:00)

deb Explorer IX - Pass Details

Date: 22 April 2024
Orbit: 513 x 891 km, 38.7° (Epoch: 21 May)

Event Time Altitude Azimuth Distance (km) Brightness Sun altitude
Rises 13:38:49 0° 269° (W) 3,519 ? 37.6°
Reaches altitude 10° 13:42:02 10° 254° (WSW) 2,583 ? 37.1°
Maximum altitude 13:46:30 21° 208° (SSW) 1,908 ? 36.4°
Drops below altitude 10° 13:50:52 10° 162° (SSE) 2,519 ? 35.7°
Sets 13:53:58 0° 147° (SSE) 3,406 ? 35.2°
